Regional Weather Roundup
Issued by NWS

Home | Current Version | Previous Version | Text Only | Print | Product List | Glossary Off
Versions: 1 2 3 4 5 6 7 8 9 10 11 12 13 14 15 16 17 18 19 20 21 22 23 24 25 26 27 28 29 30 31 32 33 34 35 36 37 38 39 40 41 42 43 44 45 46 47 48 49 50

000
ASUS43 KMKX 061611
RWRWI

WISCONSIN REGIONAL WEATHER ROUNDUP
NATIONAL WEATHER SERVICE MILWAUKEE/SULLIVAN WI
1100 AM CDT MON JUL 06 2015

NOTE: "FAIR" INDICATES FEW OR NO CLOUDS BELOW 12,000 FEET WITH NO
SIGNIFICANT WEATHER AND/OR OBSTRUCTIONS TO VISIBILITY.

WIZ001-002-006>008-014>016-023>028-061700-
NORTHWEST WISCONSIN

CITY           SKY/WX    TMP DP  RH WIND       PRES   REMARKS
SUPERIOR ARPT  RAIN      60  59  97 NE7       29.90R
ASHLAND        LGT RAIN  61  60  97 N17G23    29.87R FOG
HAYWARD        RAIN      68  66  93 CALM      29.83S FOG
SIREN          RAIN      62  60  95 N17G23    29.86R
CUMBERLAND     LGT RAIN  68  64  88 S7        29.83R
RICE LAKE      LGT RAIN  69  66  92 CALM      29.84R
CHETEK         RAIN      69  68  98 SE3       29.83S
LADYSMITH      DRIZZLE   71  68  91 S3        29.85R
EAU CLAIRE     CLOUDY    72  69  90 S8        29.81R
MENOMONIE      HVY RAIN  71  71  99 N5        29.81F
NEW RICHMOND   LGT RAIN  72  70  92 CALM      29.82S
OSCEOLA        HVY RAIN  70  70 100 NW8       29.85R
$$

WIZ003>005-009-010-017-018-061700-
NORTH CENTRAL WISCONSIN

CITY           SKY/WX    TMP DP  RH WIND       PRES   REMARKS
MANITOWISH WTR DRIZZLE   67  67 100 S5        29.85F
ARBOR VITAE    LGT RAIN  69  67  93 S6        29.86R
WOODRUFF       LGT RAIN  69  67  93 S6        29.86R
RHINELANDER    RAIN      68  66  93 S7        29.89R FOG
EAGLE RIVER    HVY RAIN  66  66 100 S3        29.86R
LAND O LAKES   LGT RAIN  69  67  94 CALM      29.87R
PHILLIPS       DRIZZLE   68  68  98 SE6       29.83S
TOMAHAWK       RAIN      67  66  96 SE6       29.85S
MEDFORD        LGT RAIN  67  67  99 S10       29.85R
MERRILL        RAIN      67  67 100 SE6       29.86F
$$

WIZ029-030-035-036-043>047-061700-
CENTRAL WISCONSIN

CITY           SKY/WX    TMP DP  RH WIND       PRES   REMARKS
WAUSAU         LGT RAIN  69  68  96 SE5       29.84F FOG
MOSINEE        HVY RAIN  68  68 100 SE6       29.88F VSB 1
MARSHFIELD     CLOUDY    72  67  84 S6        29.84F
STEVENS POINT  LGT RAIN  67  67  98 CALM      29.85F
WAUPACA        PTSUNNY   74  71  89 S6        29.88S FOG
WAUTOMA        LGT RAIN  75  72  91 SW5       29.87F FOG
WISC RAPIDS    PTSUNNY   72  68  87 S8        29.86F FOG
CAMP DOUGLAS   CLOUDY    75  75 100 SW9       29.85F
$$

WIZ011>013-019>022-031-037>040-048>050-061700-
NORTHEAST WISCONSIN

CITY           SKY/WX    TMP DP  RH WIND       PRES   REMARKS
ANTIGO         HVY RAIN  65  65  99 S9        29.90R VSB 3/4
SHAWANO        LGT RAIN  73  69  88 S3        29.88S
OCONTO         FAIR      76  68  76 SW9       29.88R
STURGEON BAY   FAIR      72  64  78 S12       29.91S
GREEN BAY      PTSUNNY   78  68  71 S14       29.87F HAZE    HX  80
MANITOWOC      FAIR      72  65  78 MISG      29.90F HAZE
APPLETON       RAIN      73  66  78 SW8       29.90R
CLINTONVILLE   CLOUDY    70  68  94 S5        29.88R FOG
OSHKOSH        LGT RAIN  78  69  73 SW13G22   29.89R HX  80
$$

WIZ032>034-041-042-053>061-061700-
SOUTHWEST WISCONSIN

CITY           SKY/WX    TMP DP  RH WIND       PRES   REMARKS
LA CROSSE      PTSUNNY   75  71  87 S8        29.82F
SPARTA         FAIR      74  70  87 S6        29.86S
VIROQUA        CLOUDY    73  72  99 S7        29.88F
BOSCOBEL       PTSUNNY   75  71  87 S6        29.88F
PRAIRIE DU CHI LGT RAIN  73  67  83 E5        29.85F
PLATTEVILLE    CLOUDY    73  71  92 S9        29.95R
$$

WIZ056-057-062-063-064-067-068-061700-
SOUTH CENTRAL WISCONSIN

CITY           SKY/WX    TMP DP  RH WIND       PRES   REMARKS
REEDSBURG      PTSUNNY   73  71  93 SW9       29.89S FOG
BARABOO/DELLS  FAIR      72  69  90 SW13      29.89F FOG
LONE ROCK      PTSUNNY   76  70  82 SW8       29.91S HAZE
MINERAL POINT  CLOUDY    73  70  88 S10       29.94S
MADISON        LGT RAIN  73  70  90 SW5       29.93R FOG
MIDDLETON      CLOUDY    74  72  93 SW12      29.93S
WATERTOWN      FAIR      78  75  90 S13       29.91S HX  80
MONROE         RAIN      72  70  94 SW15G22   29.97R
JANESVILLE     PTSUNNY   81  70  69 SW15G21   29.93R HX  84
$$

WIZ051-052-058>065-066-070>072-061700-
SOUTHEAST WISCONSIN

CITY           SKY/WX    TMP DP  RH WIND       PRES   REMARKS
MILWAUKEE      PTSUNNY   81  68  64 S14G23    29.93F HX  84
WAUKESHA       SUNNY     77  64  65 S7        29.93F
MILWAUKEE/TIMM SUNNY     79  64  61 S12       29.93F HX  81
RACINE         FAIR      76  65  68 S10       29.96F HAZE
BURLINGTON     FAIR      80  68  68 S13G21    29.93F HX  82
KENOSHA        FAIR      81  69  67 S13G21    29.95F HX  84
FOND DU LAC    PTSUNNY   79  69  71 SW13G23   29.90R HX  81
SHEBOYGAN      FAIR      76  67  73 S12       29.91F HAZE
WEST BEND      FAIR      79  66  65 S14       29.92S HX  81
JUNEAU         PTSUNNY   76  70  80 SW13      29.93R
$$

LSZ147-162-061700-
LAKE SUPERIOR

STATION/POSITION TIME  TEMP    WIND        PRES    WAVE
                       AIR SEA DIR/SP/G            HT/PER
                 (UTC) (F)     (DEG/KT/KT) (MB)    (FT/S)
W MID LAKE BUOY  1550   45 39   30/  8/  8 1011.0R   1
DEVILS ISLAND    1600   60     360/ 10/ 11 1012.2R
PORT WING        1500   60      10/ 13/ 16   N/A
SAXON HARBOR     1500   63      20/  5/  7 1010.5
$$

LMZ867-665-643>646-061700-
LAKE MICHIGAN

STATION/POSITION TIME  TEMP    WIND        PRES    WAVE
                       AIR SEA DIR/SP/G            HT/PER
                 (UTC) (F)     (DEG/KT/KT) (MB)    (FT/S)
CHAMBERS ISLAND  1500   72     150/  5/ 13 1011.9S
S GREEN BAY BUOY 1600   73 69  180/ 10/ 14 1012.7F
N MID LAKE BUOY  1550   60 55  200/ 17/ 19 1012.1F   3/ 4
NORTHPORT PIER   1500   66     150/ 10/ 13 1012.2S
SISTER BAY       1514   74     170/ 12/ 16   N/A
ALGOMA LAKESHORE 1511          210/ 12/ 14   N/A
KEWAUNEE LAKESHO 1500   61     180/ 15/ 17 1012.1F
SHEBOYGAN LAKESH 1600   62     170/ 20/ 22 1012.9F
PORT WASHINGTON  1500   67     170/  7/ 11 1014.2F
ATWATER BUOY     1600   64 60  190/  6/ 10 1014.7F
MILWAUKEE LAKESH 1500   64     150/ 12/ 14   N/A
KENOSHA   LAKESH 1600   65     170/ 12/ 15 1013.9F
$$

TC  - TEMPERATURE IN CELSIUS
VSB - VISIBILITY IN STATUTE MILES
WCI - WIND CHILL INDEX
HX  - HEAT INDEX




USA.gov is the U.S. government's official web portal to all federal, state and local government web resources and services.